Location: Nitra
(0.0000°N, 18.0833°E)
Time: 05:04:19
(UTC+01:00)

Meteor 2-15 Rocket - Pass Details

Date: 24 January 2021
Orbit: 939 x 955 km, 82.5° (Epoch: 04 March)

Event Time Altitude Azimuth Distance (km) Brightness Sun altitude
Rises 19:21:17 0° 1° (N) 3,615 7.3 -19.2°
Reaches altitude 10° 19:23:48 10° 4° (N) 2,671 6.6 -19.8°
Maximum altitude 19:29:52 69° 86° (E) 1,014 4.3 -21.2°
Drops below altitude 10° 19:35:56 10° 169° (S) 2,672 6.9 -22.6°
Sets 19:38:26 0° 171° (S) 3,617 7.6 -23.2°
